Location: Navajo
(48.7922°N, 105.0603°W)
Time: 03:11:07
(UTC+00:00)

Envisat - Visible Passes

Search period start: 20 January 2022 00:00
Search period end: 30 January 2022 00:00
Orbit: 764 x 766 km, 98.2° (Epoch: 19 January)

Date Brightness Start Highest point End Pass type
(mag) Time Alt. Az. Time Alt. Az. Time Alt. Az.
20 Jan 4.2 11:24:30 10° NNE 11:29:17 39° E 11:34:01 10° SSE visible
20 Jan 3.6 13:03:42 10° N 13:08:13 33° WNW 13:12:42 10° SW visible
21 Jan 5.9 00:24:10 10° SW 00:27:21 17° W 00:30:33 10° NW visible
21 Jan 5.4 10:48:25 10° NE 10:52:05 19° E 10:55:42 10° SE visible
21 Jan 2.9 12:26:30 10° N 12:31:32 64° WNW 12:36:33 10° SSW visible
21 Jan 4.8 14:07:53 10° NNW 14:09:36 12° NW 14:11:18 10° WNW visible
22 Jan 3.3 11:49:36 10° NNE 11:54:40 64° ESE 11:59:42 10° S visible
22 Jan 4.1 13:29:28 10° NNW 13:33:15 21° WNW 13:37:01 10° WSW visible
23 Jan 4.6 11:13:04 10° NNE 11:17:36 31° E 11:22:06 10° SSE visible
23 Jan 3.4 12:51:58 10° N 12:56:42 40° WNW 13:01:24 10° SW visible
24 Jan 5.8 00:11:53 10° SW 00:15:37 21° W 00:19:24 10° NW visible
24 Jan 5.6 10:37:18 10° NE 10:40:20 16° E 10:43:21 10° SE visible
24 Jan 2.8 12:14:52 10° NNE 12:19:58 79° WNW 12:25:02 10° SSW visible
24 Jan 4.6 13:55:35 10° NNW 13:58:11 14° NW 14:00:46 10° W visible
25 Jan 3.7 11:38:03 10° NNE 11:43:02 51° E 11:47:58 10° S visible
25 Jan 3.9 13:17:37 10° N 13:21:46 26° WNW 13:25:54 10° WSW visible
26 Jan 6.2 00:39:12 10° WSW 00:41:15 12° W 00:43:19 10° WNW visible
26 Jan 5.0 11:01:42 10° NE 11:05:55 26° E 11:10:06 10° SSE visible
26 Jan 3.1 12:40:16 10° N 12:45:11 49° WNW 12:50:02 10° SW visible
27 Jan 5.9 10:26:28 10° ENE 10:28:34 12° E 10:30:40 10° ESE visible
27 Jan 2.9 12:03:15 10° NNE 12:08:23 84° ESE 12:13:28 10° SSW visible
27 Jan 4.4 13:43:33 10° NNW 13:46:45 17° WNW 13:49:56 10° W visible
28 Jan 4.1 11:26:34 10° NNE 11:31:23 41° E 11:36:10 10° SSE visible
28 Jan 3.7 13:05:51 10° N 13:10:17 31° WNW 13:14:42 10° SW visible
29 Jan 6.0 00:26:30 10° SW 00:29:29 16° W 00:32:29 10° NW visible
29 Jan 5.3 10:50:24 10° NE 10:54:12 21° E 10:57:58 10° SE visible
29 Jan 2.9 12:28:36 10° N 12:33:37 60° WNW 12:38:36 10° SSW visible
